Sergio Pellistri

Olheiro-Chefe - Colon
17 Jul 2027
Sábado
Processo

Personalidade

Adaptabilidade (10) Ambição (8) Controvérsia (9) Lealdade (17) Pressão (13) Profissionalismo (10) Espírito Esportivo (3) Temperamento (18)

Perfil

Estilo de Treinamento Democrático
Licença Continental B
Determinação 2
Gestão de Pessoas 7
Motivação 2
Disciplina 9
Satisfação no Trabalho
100%
Fadiga
0%
Função Olheiro-Chefe
Salário 44.8K p/s
Contrato 14.03.2028

Desempenho

Comportamento Bom
Eficácia do Treinamento
31%
Desenvolvimento do Jogador
45%
Prevenção de Lesões
15%
Implementação Tática
10%

Eventos Recentes

Participou de uma reunião de recrutamento 14d atrás
Participou de uma reunião de recrutamento 21d atrás
Participou de uma reunião de recrutamento 21d atrás
Participou de uma reunião de recrutamento 28d atrás
Participou de uma reunião de recrutamento 28d atrás
Participou de uma reunião de recrutamento 35d atrás
Participou de uma reunião de recrutamento 49d atrás
Participou de uma reunião de recrutamento 56d atrás

Monitorando agora

112
Jogador Clube Status Habilidade Confiança Observado Última observação Último voto
Mateo Alcoba Albion Ativo 84 / 98 51% 1 28.06.2027 -
Nicolás Ferreira Artigas Ativo 85 / 81 51% 1 02.06.2027 -
Gonzalo Gamarra Floriana Ativo 110 / 87 40% 2 29.11.2026 -
Iván Cabrera Atletico Venezuela Ativo 100 / 99 40% 1 29.11.2026 -
Valentín Robaldo Alianza Atletico Ativo 93 / 97 40% 2 28.11.2026 -
Gaspar Padilla Gimnasia y Esgrima Ativo 88 / 77 40% 2 27.11.2026 -
Agustín Juárez Cremonese Ativo 97 / 85 40% 1 27.11.2026 -
Facundo Kalinger Huracán Ativo 107 / 102 40% 2 26.11.2026 -
Félix Villacorta Como Ativo 93 / 97 40% 1 26.11.2026 -
Juan Pablo Barinaga Patronato Ativo 102 / 103 40% 1 25.11.2026 -
Aron Agüero Maipú Ativo 121 / 101 40% 1 25.11.2026 Mais informações
Darío Ramírez Real Sociedad Ativo 106 / 105 40% 1 23.11.2026 -
Federico Pérez Agropecuario Argentino Ativo 122 / 120 40% 1 23.11.2026 -
Facundo Gulli San Lorenzo Ativo 120 / 132 40% 1 22.11.2026 -
Rafael Sangiovani Metropolitanos Ativo 110 / 107 40% 1 22.11.2026 -
Guillermo Bassi Coventry City Ativo 88 / 86 40% 2 20.11.2026 -
Marcos Camarda Santiago Wanderers Ativo 110 / 105 40% 4 19.11.2026 -
Adalberto Peñaranda Deportivo Tachira Ativo 102 / 121 40% 2 19.11.2026 -
Bruno Larregui Juventud Ativo 108 / 113 40% 1 18.11.2026 -
Fernando Mimbacas Juventud Ativo 106 / 98 40% 1 18.11.2026 -
Gonzalo Valenzuela Palermo Ativo 97 / 100 40% 2 17.11.2026 -
Enzo Larrosa Independiente Medellin Ativo 117 / 101 40% 3 16.11.2026 -
Julián Ceballos Gimnasia y Esgrima Ativo 122 / 132 40% 2 15.11.2026 -
Ian Escobar Vélez Ativo 100 / 86 40% 1 15.11.2026 -
Bruno Veglio Newell's Old Boys Ativo 113 / 108 40% 1 15.11.2026 -
Ignacio Sabatini Gimnasia y Esgrima Ativo 97 / 107 40% 3 13.11.2026 -
Francisco Perruzzi Aldosivi Ativo 121 / 110 40% 2 13.11.2026 -
Ignacio Campo Huracán Ativo 109 / 97 40% 1 13.11.2026 -
Tobías Bovone Deportivo Pereira Ativo 112 / 121 40% 1 11.11.2026 -
Joshua Kayode Lucko Ativo 69 / 90 40% 1 09.11.2026 -
Nahuel Roldán Deportivo La Coruña Ativo 89 / 116 40% 5 08.11.2026 -
Gustavo Rigazzi Ravenna Ativo 86 / 83 40% 1 07.11.2026 -
Franco Déboli Audax Italiano Ativo 93 / 111 40% 2 06.11.2026 -
Franco Romero Avellino Ativo 113 / 89 40% 1 06.11.2026 -
Agustín Venezia Iquique Ativo 113 / 118 40% 4 05.11.2026 -
Agustín da Silveira Sportivo Trinidense Ativo 95 / 100 40% 1 05.11.2026 -
César Magallan Estudiantes de Merida Ativo 96 / 108 40% 2 02.11.2026 -
Agustín Bianciotti Metropolitanos Ativo 111 / 102 40% 6 01.11.2026 -
Julián Brea Cobresal Ativo 94 / 110 40% 1 31.10.2026 -
Driton Camaj Novi Pazar Ativo 121 / 102 40% 1 29.10.2026 -
Nicolás Muscio Nizhniy Novgorod Ativo 106 / 94 40% 1 28.10.2026 -
Agustín Aleo Central Norte Ativo 108 / 120 40% 1 28.10.2026 -
Mariano Bracamonte Deportivo Riestra Ativo 117 / 106 40% 1 26.10.2026 -
Milton Ríos Huracán Ativo 119 / 121 40% 1 26.10.2026 -
Gerónimo Patritti Gimnasia y Esgrima Ativo 105 / 84 40% 1 24.10.2026 -
Lucas Richarte Temperley Ativo 102 / 107 40% 1 24.10.2026 -
Franco Troyansky Audax Italiano Ativo 117 / 104 40% 1 22.10.2026 -
Facundo Velazco San Marcos de Arica Ativo 107 / 111 40% 1 19.10.2026 -
Agustín Zabaleta Chaco For Ever Ativo 98 / 96 40% 2 16.10.2026 -
Imanol Enríquez Olimpia Ativo 93 / 91 40% 3 14.10.2026 -
Juan Román Zarza AS Nancy Ativo 85 / 99 40% 1 13.10.2026 -
Alejo Cruz Juventud Ativo 110 / 111 40% 3 11.10.2026 -
Laureano Paez Colón Ativo 97 / 88 40% 2 11.10.2026 -
Samuel Kalu Botev Plovdiv Ativo 115 / 103 40% 1 10.10.2026 -
Nicolás González Plaza Colonia Ativo 93 / 103 40% 1 10.10.2026 -
Lautaro Mora Huracán Ativo 100 / 110 40% 1 07.10.2026 -
Thomas Oliveri Defensa y Justicia Ativo 105 / 88 40% 2 04.10.2026 -
Mariano Peralta Bauer Defensa y Justicia Ativo 110 / 116 40% 2 03.10.2026 -
Sunday Megwo Abia Warriors Ativo 91 / 109 40% 1 02.10.2026 -
Marco Oroná Antofagasta Ativo 89 / 109 40% 1 02.10.2026 -
Francisco González Metilli Belgrano Ativo 131 / 132 40% 1 02.10.2026 -
Valentín Fenoglio Estudiantes Ativo 121 / 121 40% 1 02.10.2026 -
Lautaro Lovazzano Portuguesa Ativo 91 / 108 40% 1 30.09.2026 -
Genaro Rossi San Martín SJ Ativo 115 / 101 40% 3 28.09.2026 -
Tobías Ganduglia Independiente Rivadavia Ativo 86 / 92 40% 1 28.09.2026 -
Cristián Gutiérrez Union La Calera Ativo 110 / 96 40% 1 26.09.2026 -
Mateo Seoane Gimnasia La Plata Ativo 106 / 112 40% 1 26.09.2026 -
Juan Cruz Zurbriggen San Telmo Ativo 111 / 91 40% 1 26.09.2026 -
Ignacio Cuello Atlético Tucumán Ativo 96 / 94 40% 2 25.09.2026 -
Tiago Benzi Belgrano Ativo 91 / 93 40% 1 24.09.2026 -
Martín Sarrafiore O'Higgins Ativo 109 / 109 40% 1 22.09.2026 -
Milton Valenzuela Atlas Ativo 123 / 124 40% 1 20.09.2026 -
Santiago Homenchenko Queretaro Ativo 90 / 120 40% 1 20.09.2026 -
Agustín Páez Maipú Ativo 86 / 97 40% 1 17.09.2026 -
Cristian Ludueña Talleres Ativo 117 / 110 40% 1 17.09.2026 -
Tobías Quinteros Almirante Brown Ativo 91 / 85 40% 1 15.09.2026 -
Tomás Romero Unión de Santa Fe Ativo 93 / 93 40% 1 15.09.2026 -
Alexei Dominguez Pachuca Ativo 88 / 88 40% 1 14.09.2026 -
César Munder Palestino Ativo 114 / 117 40% 1 13.09.2026 -
Sebastián Moreno Patriotas Ativo 100 / 103 40% 1 12.09.2026 -
Kavier Ortiz Metropolitanos Ativo 90 / 87 40% 1 11.09.2026 -
Agustín Heredia Boca Juniors Ativo 97 / 114 40% 1 09.09.2026 -
Stiven Vega Millonarios Ativo 120 / 113 40% 1 07.09.2026 -
Santiago Luján Huracán Ativo 108 / 104 40% 1 07.09.2026 -
Rodrigo Cáseres Union La Calera Ativo 105 / 114 40% 1 07.09.2026 -
Ronaldo Peña Deportivo Lara Ativo 99 / 102 40% 1 03.09.2026 -
Maximiliano Arias Defensores Ativo 96 / 100 40% 1 02.09.2026 -
Gastón Mansilla Maipú Ativo 112 / 118 40% 1 01.09.2026 -
Fabricio Rojas Gimnasia y Tiro Ativo 123 / 114 40% 2 30.08.2026 -
Martín Rea Atletico Bucaramanga Ativo 107 / 113 40% 1 30.08.2026 -
Bautista Arricau Audax Italiano Ativo 95 / 93 40% 1 30.08.2026 -
Valerio Olivera Instituto Ativo 76 / 89 40% 1 29.08.2026 -
Gonzalo Córdoba Mitre Ativo 92 / 94 40% 2 27.08.2026 -
Tobías Donsanti Atletico Bucaramanga Ativo 98 / 109 40% 1 25.08.2026 -
Tiago Taobas Central Norte Ativo 83 / 100 40% 1 24.08.2026 -
Thiago Perugini San Lorenzo Ativo 92 / 95 40% 1 24.08.2026 -
César Galíndez Belgrano Ativo 95 / 90 40% 1 24.08.2026 -
Ronny Maza Aragua Ativo 84 / 105 40% 1 21.08.2026 -
Lucas Besozzi Lanús Ativo 123 / 133 40% 1 20.08.2026 -
Michael Nike Patriotas Ativo 114 / 105 40% 1 20.08.2026 -
Oscar Ferraresi Llaneros Ativo 112 / 114 40% 1 19.08.2026 -
Lucas Arce Godoy Cruz Ativo 116 / 122 40% 1 19.08.2026 -
Marcelo Flores Tigres Ativo 114 / 127 40% 1 17.08.2026 -
Ariel Muñoz Alianza Atletico Ativo 97 / 91 40% 1 14.08.2026 -
Ignacio Yepez Cerrito Ativo 99 / 115 40% 1 12.08.2026 -
Francisco Galván Deportivo Municipal Ativo 109 / 97 40% 1 11.08.2026 -
Erik López Olimpia Ativo 100 / 99 40% 1 10.08.2026 -
Juan Cekalovich Gimnasia y Esgrima Ativo 80 / 88 40% 2 09.08.2026 -
Thomás Amilivia Leones Ativo 100 / 106 40% 1 07.08.2026 -
José Balza Deportivo Tachira Ativo 108 / 121 40% 1 06.08.2026 -
Mauro Molina Estudiantes Ativo 98 / 97 40% 1 02.08.2026 -
Thiago Vecino O'Higgins Ativo 101 / 110 40% 1 01.08.2026 -